Regional Weather Roundup
Issued by NWS

Home | Current Version | Previous Version | Graphics & Text | Print | Product List | Glossary On
Versions: 1 2 3 4 5 6 7 8 9 10 11 12 13 14 15 16 17 18 19 20 21 22 23 24 25 26 27 28 29 30 31 32 33 34 35 36 37 38 39 40 41 42 43 44 45 46 47 48 49 50
000
ASUS43 KBIS 210710
RWRND

NORTH DAKOTA REGIONAL WEATHER ROUNDUP
NATIONAL WEATHER SERVICE BISMARCK ND
200 AM CDT MON APR 21 2014

NOTE: "FAIR" INDICATES FEW OR NO CLOUDS BELOW 12,000 FEET WITH NO
SIGNIFICANT WEATHER AND/OR OBSTRUCTIONS TO VISIBILITY.


NDZ001>003-009>011-017-210800-
NORTHWEST NORTH DAKOTA

CITY           SKY/WX    TMP DP  RH WIND       PRES   REMARKS
WILLISTON      CLEAR     43  32  65 N6        30.10R
MINOT          CLEAR     45  34  65 W15       30.00R
MINOT AFB      CLEAR     44  36  74 W15       29.99R
$$

NDZ018>021-031>035-040>046-210800-
SOUTHWEST NORTH DAKOTA

CITY           SKY/WX    TMP DP  RH WIND       PRES   REMARKS
BISMARCK       CLEAR     42  28  57 W7        30.05R
DICKINSON      CLEAR     37  25  61 NW9       30.08R
GARRISON         N/A     46  32  58 W14       30.02S
HETTINGER ARPT CLEAR     34  24  67 CALM      30.13R
$$

NDZ004>008-012>016-024-026-027-054-210800-
NORTHEAST NORTH DAKOTA

CITY           SKY/WX    TMP DP  RH WIND       PRES   REMARKS
GRAND FORKS    PTCLDY    48  37  65 W10       29.91R
GRND FRKS AFB  PTCLDY    50  36  57 W12       29.91R
DEVILS LAKE    CLEAR     45  34  65 W14       29.92S
$$

NDZ022-023-025-028>030-036>039-047>053-210800-
SOUTHEAST NORTH DAKOTA

CITY           SKY/WX    TMP DP  RH WIND       PRES   REMARKS
FARGO          CLOUDY    50  35  56 CALM      29.94R
JAMESTOWN      CLEAR     45  32  60 W10       29.98R
$$




USA.gov is the U.S. government's official web portal to all federal, state and local government web resources and services.